Location: Oshawa
(43.9000°N, 78.8670°W)
Time: 12:01:32
(UTC-04:00)

Iridium 54 - Visible Passes

Search period start: 26 July 2016 00:00
Search period end: 05 August 2016 00:00
Orbit: 776 x 779 km, 86.4° (Epoch: 25 July)

Date Brightness Start Highest point End Pass type
(mag) Time Alt. Az. Time Alt. Az. Time Alt. Az.
26 Jul 5.5 01:19:22 10° N 01:24:34 69° W 01:24:34 69° W visible
27 Jul 5.6 00:45:50 10° N 00:51:03 67° E 00:51:03 67° E visible
27 Jul 7.5 02:28:11 10° NW 02:31:08 15° WNW 02:31:30 15° W visible
28 Jul 6.3 00:12:33 10° NNE 00:17:24 37° E 00:17:32 37° E visible
28 Jul 6.9 01:53:37 10° NNW 01:57:56 27° W 01:58:00 27° W visible
28 Jul 7.1 23:39:39 10° NNE 23:43:37 22° ENE 23:44:03 21° E visible
29 Jul 6.1 01:19:36 10° NNW 01:24:31 48° W 01:24:31 48° W visible
29 Jul 7.7 23:07:40 10° NE 23:09:42 12° ENE 23:10:33 12° E visible
30 Jul 5.4 00:45:55 10° N 00:51:01 84° NW 00:51:01 84° NW visible
30 Jul 7.9 02:30:03 10° WNW 02:30:59 10° WNW 02:31:29 10° W visible
31 Jul 5.8 00:12:28 10° N 00:17:32 53° E 00:17:32 53° E visible
31 Jul 7.3 01:54:14 10° NW 01:57:52 19° W 01:58:00 19° W visible
31 Jul 6.6 23:39:19 10° NNE 23:43:54 30° ENE 23:44:03 30° E visible
01 Aug 6.6 01:19:57 10° NNW 01:24:30 34° W 01:24:30 34° W visible
01 Aug 7.3 23:06:39 10° NNE 23:10:04 17° ENE 23:10:34 17° E visible
02 Aug 5.8 00:46:05 10° N 00:51:02 60° WNW 00:51:02 60° WNW visible
03 Aug 5.5 00:12:30 10° N 00:17:34 75° ENE 00:17:34 75° ENE visible
03 Aug 7.7 01:55:16 10° NW 01:57:44 14° WNW 01:58:02 13° W visible
03 Aug 6.1 23:39:10 10° N 23:44:06 42° E 23:44:06 42° E visible
04 Aug 7.1 01:20:27 10° NNW 01:24:34 24° W 01:24:35 24° W visible
04 Aug 6.9 23:06:09 10° NNE 23:10:22 24° ENE 23:10:39 24° E visible
